KC7NGC-B Weather Reports


time (UTC)temp
C
wind
direction
speed
KPH
gust
KPH
rain 1hr
cm
rain 24hr
cm
rain mn
cm
humidity
%
barometer
mb
20260903043628 15 198 14.5 22.5 0.00 0.00 0.00 1 1009.6
20260903042625 15 198 9.7 27.4 0.00 0.00 0.00 1 1009.7
20260903041701 15 208 12.9 30.6 0.00 0.00 0.00 1 1009.6
20260903040616 15 190 9.7 19.3 0.00 0.00 0.00 1 1009.6
20260903035653 15 195 11.3 24.1 0.00 0.00 0.00 1 1009.6
20260903034629 15 199 12.9 17.7 0.00 0.00 0.00 1 1009.5
20260903033625 15 200 14.5 19.3 0.00 0.00 0.00 1 1009.5
20260903032621 15 196 12.9 19.3 0.00 0.00 0.00 1 1009.6
20260903031617 15 202 11.3 17.7 0.00 0.00 0.00 1 1009.3
20260903030633 16 199 8.0 14.5 0.00 0.00 0.00 1 1009.3
20260903025629 16 196 8.0 16.1 0.00 0.00 0.00 1 1009.1
20260903024645 16 198 9.7 14.5 0.00 0.00 0.00 1 1009.2
20260903023622 16 204 12.9 16.1 0.00 0.00 0.00 1 1009.4
20260903022618 16 188 12.9 24.1 0.00 0.00 0.00 1 1009.4
20260903021654 16 201 16.1 22.5 0.00 0.00 0.00 1 1009.2
20260903020631 16 205 12.9 19.3 0.00 0.00 0.00 1 1009.2
20260903015627 16 217 9.7 19.3 0.00 0.00 0.00 1 1009.4
20260903014623 16 199 14.5 24.1 0.00 0.00 0.00 1 1009.5
20260903013619 17 217 11.3 19.3 0.00 0.00 0.00 1 1009.2
20260903012656 17 217 19.3 27.4 0.00 0.00 0.00 1 1009.4
20260903011632 17 221 14.5 25.7 0.00 0.00 0.00 1 1009.4
20260903010628 17 212 16.1 25.7 0.00 0.00 0.00 1 1009.3
20260903005624 17 222 9.7 16.1 0.00 0.00 0.00 1 1009.1
20260903004620 18 218 9.7 25.7 0.00 0.00 0.00 1 1009.1
20260903003619 18 219 19.3 27.4 0.00 0.00 0.00 1 1009.1
20260903002632 18 216 12.9 22.5 0.00 0.00 0.00 1 1009.1
20260903001628 17 223 14.5 32.2 0.00 0.00 0.00 1 1009.0
20260903000624 17 215 16.1 22.5 0.00 0.00 0.00 1 1009.1
20260902235621 17 205 14.5 20.9 0.00 0.00 0.00 1 1009.1
20260902234617 18 210 12.9 22.5 0.00 0.00 0.00 1 1008.9
20260902233654 19 215 14.5 25.7 0.00 0.00 0.00 1 1008.7
20260902232629 19 214 17.7 32.2 0.00 0.00 0.00 1 1008.9
20260902231646 19 210 19.3 25.7 0.00 0.00 0.00 1 1009.2
20260902230621 18 224 9.7 17.7 0.00 0.00 0.00 1 1009.3
20260902225618 17 204 9.7 14.5 0.00 0.00 0.00 1 1009.2
20260902224634 17 205 9.7 16.1 0.00 0.00 0.00 1 1009.3
20260902223650 17 211 14.5 19.3 0.00 0.00 0.00 1 1009.2
20260902222626 18 237 14.5 33.8 0.00 0.00 0.00 1 1009.2
20260902221623 21 216 9.7 16.1 0.00 0.00 0.00 1 1008.7
20260902220638 23 186 14.5 19.3 0.00 0.00 0.00 1 1008.0
20260902215634 22 189 6.4 9.7 0.00 0.00 0.00 1 1008.0
20260902214631 22 183 6.4 8.0 0.00 0.00 0.00 1 1008.0
20260902213627 22 180 11.3 17.7 0.00 0.00 0.00 1 1008.1
20260902212703 22 177 9.7 12.9 0.00 0.00 0.00 1 1008.1
20260902211639 23 179 8.0 9.7 0.00 0.00 0.00 1 1008.2
20260902210635 23 172 6.4 9.7 0.00 0.00 0.00 1 1008.2
20260902205632 23 216 8.0 11.3 0.00 0.00 0.00 1 1008.1
20260902204628 22 219 6.4 9.7 0.00 0.00 0.00 1 1008.2
20260902203625 22 177 3.2 6.4 0.00 0.00 0.00 1 1008.3
20260902202621 22 201 8.0 11.3 0.00 0.00 0.00 1 1008.5
20260902201617 22 215 3.2 8.0 0.00 0.00 0.00 1 1008.6
20260902200634 22 176 8.0 12.9 0.00 0.00 0.00 1 1008.7
20260902195629 22 253 6.4 9.7 0.00 0.00 0.00 1 1008.9
20260902194707 22 266 8.0 9.7 0.00 0.00 0.00 1 1009.0
20260902193622 22 205 9.7 17.7 0.00 0.00 0.00 1 1009.1
20260902192639 22 219 9.7 12.9 0.00 0.00 0.00 1 1009.2
20260902191635 22 183 4.8 11.3 0.00 0.00 0.00 1 1009.4
20260902190631 21 211 9.7 17.7 0.00 0.00 0.00 1 1009.3
20260902185630 21 207 4.8 6.4 0.00 0.00 0.00 1 1009.7
20260902184624 21 213 6.4 11.3 0.00 0.00 0.00 1 1009.5
20260902183619 21 182 11.3 17.7 0.00 0.00 0.00 1 1009.9
20260902182616 21 209 12.9 22.5 0.00 0.00 0.00 1 1009.9
20260902181632 21 182 12.9 16.1 0.00 0.00 0.00 1 1009.8
20260902180629 21 211 4.8 9.7 0.00 0.00 0.00 1 1009.9
20260902175645 21 185 6.4 12.9 0.00 0.00 0.00 1 1009.9
20260902174641 20 207 9.7 14.5 0.00 0.00 0.00 1 1010.1
20260902173618 20 182 9.7 12.9 0.00 0.00 0.00 1 1009.9
20260902172634 19 200 6.4 9.7 0.00 0.00 0.00 1 1010.1
20260902171630 18 194 9.7 16.1 0.00 0.00 0.00 1 1010.1
20260902170626 18 208 8.0 9.7 0.00 0.00 0.00 1 1010.0
20260902165623 19 192 12.9 16.1 0.00 0.00 0.00 1 1010.2
20260902164619 19 201 9.7 17.7 0.00 0.00 0.00 1 1010.1
20260902163620 18 175 11.3 19.3 0.00 0.00 0.00 1 1010.1
20260902162632 18 197 8.0 11.3 0.00 0.00 0.00 1 1009.9
20260902161628 17 192 11.3 17.7 0.00 0.00 0.00 1 1010.1
20260902160625 17 196 6.4 11.3 0.00 0.00 0.00 1 1010.2
20260902155621 17 191 11.3 19.3 0.00 0.00 0.00 1 1010.2
20260902154617 16 196 11.3 14.5 0.00 0.00 0.00 1 1010.3
20260902153654 15 208 6.4 9.7 0.00 0.00 0.00 1 1010.4
20260902152630 15 207 6.4 8.0 0.00 0.00 0.00 1 1010.3
20260902151626 15 200 9.7 14.5 0.00 0.00 0.00 1 1010.5
20260902150622 15 198 8.0 12.9 0.00 0.00 0.00 1 1010.4
20260902145619 15 212 6.4 9.7 0.00 0.00 0.00 1 1010.4
20260902144635 13 215 11.3 17.7 0.00 0.00 0.00 1 1010.4
20260902143651 13 245 4.8 11.3 0.00 0.00 0.00 1 1010.7
20260902142627 13 305 8.0 11.3 0.00 0.00 0.00 1 1010.6
20260902141623 14 282 4.8 11.3 0.00 0.00 0.00 1 1010.2
20260902140620 14 260 6.4 9.7 0.00 0.00 0.00 1 1010.3
20260902135617 14 300 1.6 6.4 0.00 0.00 0.00 1 1010.1
20260902134633 14 322 1.6 4.8 0.00 0.00 0.00 1 1010.1
20260902133710 14 202 12.9 19.3 0.00 0.00 0.00 1 1009.8
20260902132626 14 213 12.9 20.9 0.00 0.00 0.00 1 1009.6
20260902131622 14 205 11.3 20.9 0.00 0.00 0.00 1 1009.4
20260902130618 14 212 11.3 17.7 0.00 0.00 0.00 1 1009.3
20260902125654 14 215 14.5 20.9 0.00 0.00 0.00 1 1009.7
20260902124650 15 208 11.3 19.3 0.00 0.00 0.00 1 1009.6
20260902123627 15 215 9.7 16.1 0.00 0.00 0.00 1 1009.8
20260902122625 15 204 9.7 17.7 0.00 0.00 0.00 1 1009.6
20260902121638 15 205 12.9 19.3 0.00 0.00 0.00 1 1009.8
20260902120655 15 211 16.1 20.9 0.00 0.00 0.00 1 1009.9
20260902115652 15 216 17.7 29.0 0.00 0.00 0.00 1 1009.8
20260902114628 15 217 14.5 19.3 0.00 0.00 0.00 1 1009.7
20260902113624 15 209 12.9 22.5 0.00 0.00 0.00 1 1009.8
20260902112628 15 195 11.3 22.5 0.00 0.00 0.00 1 1009.9
20260902111617 15 199 11.3 19.3 0.00 0.00 0.00 1 1009.8
20260902110634 15 213 12.9 19.3 0.00 0.00 0.00 1 1009.8
20260902105621 15 201 9.7 17.7 0.00 0.00 0.00 1 1009.5
20260902104632 15 188 12.9 19.3 0.00 0.00 0.00 1 1009.2
20260902103628 15 221 17.7 20.9 0.00 0.00 0.00 1 1009.5
20260902102624 15 201 9.7 14.5 0.00 0.00 0.00 1 1009.2
20260902101621 15 211 9.7 12.9 0.00 0.00 0.00 1 1009.0
20260902100617 15 205 11.3 20.9 0.00 0.00 0.00 1 1009.1
20260902095634 15 216 11.3 16.1 0.00 0.00 0.00 1 1009.3
20260902094631 16 203 9.7 12.9 0.00 0.00 0.00 1 1009.4
20260902093626 16 205 12.9 19.3 0.00 0.00 0.00 1 1009.0
20260902092622 16 231 9.7 14.5 0.00 0.00 0.00 1 1009.2
20260902091618 16 216 6.4 9.7 0.00 0.00 0.00 1 1009.1
20260902090655 16 212 14.5 20.9 0.00 0.00 0.00 1 1009.4
20260902085651 16 230 12.9 16.1 0.00 0.00 0.00 1 1009.1
20260902084631 16 211 16.1 20.9 0.00 0.00 0.00 1 1009.2
20260902083623 16 210 11.3 17.7 0.00 0.00 0.00 1 1009.2
20260902082619 16 215 12.9 16.1 0.00 0.00 0.00 1 1009.3
20260902081620 17 209 12.9 16.1 0.00 0.00 0.00 1 1009.0
20260902080632 17 214 12.9 17.7 0.00 0.00 0.00 1 1008.9
20260902075629 17 219 9.7 14.5 0.00 0.00 0.00 1 1009.1
20260902074625 17 223 6.4 12.9 0.00 0.00 0.00 1 1008.8
20260902073621 18 211 11.3 17.7 0.00 0.00 0.00 1 1008.7
20260902072617 18 236 8.0 12.9 0.00 0.00 0.00 1 1008.8
20260902071654 18 238 4.8 9.7 0.00 0.00 0.00 1 1008.7
20260902070630 18 230 4.8 8.0 0.00 0.00 0.00 1 1008.7
20260902065627 18 204 9.7 16.1 0.00 0.00 0.00 1 1008.9
20260902064642 18 226 12.9 20.9 0.00 0.00 0.00 1 1008.6
20260902063618 18 211 9.7 12.9 0.00 0.00 0.00 1 1008.5
20260902062635 18 205 11.3 17.7 0.00 0.00 0.00 1 1008.4
20260902060627 19 219 9.7 16.1 0.00 0.00 0.00 1 1007.8
20260902055626 19 214 12.9 20.9 0.00 0.00 0.00 1 1007.9
20260902054620 19 216 12.9 19.3 0.00 0.00 0.00 1 1007.8
20260902053616 19 217 20.9 27.4 0.00 0.00 0.00 1 1007.7
20260902052633 20 215 9.7 16.1 0.00 0.00 0.00 1 1007.8
20260902051629 20 213 14.5 20.9 0.00 0.00 0.00 1 1007.6
20260902050645 20 201 12.9 17.7 0.00 0.00 0.00 1 1007.5
20260902045621 20 217 9.7 14.5 0.00 0.00 0.00 1 1007.5
20260902044617 20 207 9.7 14.5 0.00 0.00 0.00 1 1007.4